[[{"header":{"parameterUnit":"m.s-1","parameterCategory":1,"la1":30.2991,"la2":30.254,"lo1":-89.0895,"lo2":-89.0444,"dy":0.0017,"dx":0.0017,"nx":28,"ny":28,"refTime":"2024-03-31T09:00:00:Z","depth":0,"parameterNumber":2,"parameterNumberName":"U-component_of_WINDS"},"data":[0,0,0,0,0,0,0,0,0,0,0,0,0,0,0,0,0,0,0,0,0,0,0,0,0,0,0,0,0,0,0,0,0,0,0,0,0,0,0,0,0,0,0,0,0,0,0,0,0,0,0,0,0,0,0,0,0,0,-3.8599,-3.8599,0,-3.8647,-3.8647,-3.8648,-3.8614,-3.8612,-3.8611,-3.8609,-3.8657,-3.8659,-3.8662,0,0,0,0,0,0,0,0,0,0,0,0,0,-3.8477,-3.8479,-3.8599,-3.8599,-3.86,-3.8646,-3.8647,-3.8648,-3.8614,-3.8612,-3.861,-3.8609,-3.8656,-3.8659,-3.8662,0,0,0,0,0,0,0,0,0,0,0,0,0,-3.8528,-3.848,-3.8599,-3.8589,-3.8588,-3.8646,-3.8647,-3.8648,-3.8614,-3.8612,-3.861,-3.8608,-3.8655,-3.8659,-3.8663,-3.8732,0,0,-3.8675,-3.8677,0,0,0,0,0,0,0,0,-3.8525,-3.8532,-3.859,-3.859,-3.8589,-3.8622,-3.8621,-3.8676,-3.8615,-3.8604,-3.8609,-3.8607,-3.8647,-3.8651,-3.8665,-3.8735,-3.8737,-3.8675,-3.8678,-3.8679,-3.868,0,0,0,0,0,0,0,-3.8521,-3.853,-3.8617,-3.859,-3.859,-3.8581,-3.8586,-3.8632,-3.8638,-3.8605,-3.8603,-3.8609,-3.8646,-3.8661,-3.8666,-3.8737,-3.8675,-3.8679,-3.8681,-3.8683,-3.8866,-3.8868,0,0,0,0,0,0,-3.8519,-3.8527,-3.8616,-3.8619,-3.8551,-3.8586,-3.8591,-3.8614,-3.8637,-3.8639,-3.8611,-3.8607,-3.8656,-3.8661,-3.8668,-3.875,-3.8679,-3.8683,-3.8685,-3.8863,-3.8866,-3.8869,0,0,0,0,0,0,-3.8517,-3.8527,-3.8614,-3.8573,-3.8583,-3.859,-3.8616,-3.8616,-3.8631,-3.8641,-3.8642,-3.8625,-3.8654,-3.8662,-3.8716,-3.8751,-3.8685,-3.8689,-3.886,-3.8864,-3.8868,-3.8915,0,0,0,0,0,0,-3.8513,-3.8527,-3.8553,-3.8573,-3.8585,-3.8662,-3.8618,-3.8618,-3.8638,-3.8634,-3.8655,-3.8657,-3.8653,-3.8711,-3.872,-3.8755,-3.8692,-3.8857,-3.8862,-3.8866,-3.891,-3.892,-3.8928,0,0,0,0,0,-3.8509,-3.8565,-3.8555,-3.8566,-3.8619,-3.8665,-3.8671,-3.8666,-3.8641,-3.8667,-3.8675,-3.8656,-3.8746,-3.8717,-3.8727,-3.8764,-3.8855,-3.8861,-3.8866,-3.8906,-3.8918,-3.8928,0,0,0,0,0,0,-3.8547,-3.8567,-3.8556,-3.862,-3.8641,-3.8659,-3.8692,-3.8679,-3.8707,-3.8702,-3.8694,-3.87,-3.8756,-3.8766,-3.8733,-3.8832,-3.8796,-3.8804,-3.8823,-3.8834,-3.8843,-3.8838,-3.8695,0,0,0,0,0,-3.8564,-3.86,-3.8615,-3.8669,-3.8681,-3.8685,-3.8704,-3.8699,-3.872,-3.8729,-3.8739,-3.876,-3.8793,-3.8815,-3.8846,-3.8913,-3.8916,-3.8943,-3.8952,-3.8959,-3.8965,-3.9,-3.9012,-3.8887,-3.8887,-3.8887,0,0,-3.8597,-3.8612,-3.8635,-3.8678,-3.8693,-3.873,-3.8692,-3.8733,-3.8759,-3.8735,-3.8786,-3.8795,-3.8818,-3.8879,-3.8906,-3.8888,-3.9001,-3.8966,-3.8972,-3.8974,-3.9007,-3.9019,-3.9029,-3.8891,-3.889,-3.889,0,0,-3.8675,-3.8691,-3.8738,-3.8755,-3.8779,-3.8782,-3.8793,-3.8813,-3.8818,-3.887,-3.8852,-3.8884,-3.8941,-3.8958,-3.8974,-3.906,-3.9044,-3.9071,-3.9116,-3.915,-3.916,-3.9168,-3.9197,-3.9208,-3.9078,-3.9078,-3.9078,0,-3.8713,-3.8768,-3.8764,-3.8806,-3.8824,-3.8805,-3.8852,-3.8868,-3.8901,-3.8914,-3.8895,-3.8966,-3.898,-3.9043,-3.9065,-3.9079,-3.9091,-3.9067,-3.9159,-3.9167,-3.9175,-3.9203,-3.9214,-3.9081,-3.908,-3.908,-3.908,0,-3.8812,-3.8851,-3.8886,-3.8918,-3.8942,-3.8986,-3.8988,-3.9012,-3.9005,-3.901,-3.9063,-3.908,-3.9113,-3.9129,-3.9122,-3.9191,-3.9179,-3.916,-3.9123,-3.919,-3.9216,-3.9226,-3.9085,-3.9084,-3.9083,-3.9082,0,0,-3.8914,-3.8945,-3.8958,-3.8972,-3.8998,-3.9027,-3.9071,-3.9104,-3.9124,-3.9148,-3.9183,-3.9233,-3.9215,-3.9233,-3.9229,-3.9259,-3.9325,-3.9236,-3.9236,-3.925,-3.94,-3.9413,-3.9425,-3.9315,-3.9317,-3.9319,-3.9397,0,-3.8993,-3.9068,-3.9066,-3.9136,-3.9171,-3.9154,-3.9191,-3.9211,-3.9217,-3.9247,-3.9254,-3.9288,-3.9263,-3.9274,-3.9303,-3.931,-3.9354,-3.9305,-3.9346,-3.9348,-3.9338,-3.9439,-3.9453,-3.9526,-3.9408,-3.9409,-3.9411,0,-3.9093,-3.9121,-3.9195,-3.9215,-3.923,-3.9264,-3.9294,-3.9323,-3.9346,-3.9348,-3.9369,-3.936,-3.9403,-3.9368,-3.9427,-3.9394,-3.9411,-3.9418,-3.942,-3.9422,-3.9381,-3.9441,-3.9549,-3.9559,-3.9427,-3.9426,-3.9424,0,-3.9157,-3.9214,-3.9264,-3.9278,-3.9303,-3.9327,-3.9339,-3.9359,-3.938,-3.9406,-3.9419,-3.9451,-3.9468,-3.9492,-3.9492,-3.9467,-3.9552,-3.9516,-3.9553,-3.9553,-3.9569,-3.9568,-3.968,-3.9585,-3.9585,-3.9585,-3.9585,0,-3.9244,-3.9289,-3.9293,-3.9324,-3.9374,-3.9372,-3.9422,-3.9431,-3.9449,-3.9482,-3.947,-3.95,-3.9499,-3.953,-3.9531,-3.9579,-3.9587,-3.9589,-3.9588,-3.9589,-3.9588,-3.9598,-3.9592,-3.9588,-3.9587,-3.9587,-3.9586,0,-3.9322,-3.9328,-3.9382,-3.9402,-3.9409,-3.9444,-3.9461,-3.9491,-3.9497,-3.9537,-3.9547,-3.9556,-3.9591,-3.9595,-3.9636,-3.9637,-3.9694,-3.9689,-3.9686,-3.9684,-3.972,-3.9716,-3.984,-3.9855,-3.9753,-3.9754,-3.9755,0,-3.9375,-3.941,-3.9434,-3.9455,-3.9468,-3.9503,-3.9523,-3.9523,-3.9545,-3.9573,-3.9599,-3.9634,-3.9661,-3.9719,-3.9729,-3.976,-3.9754,-3.9796,-3.9759,-3.9758,-3.9752,-3.9749,-3.9752,-3.9802,-3.9803,-3.9804,-3.9805,0,-3.9469,-3.947,-3.95,-3.9532,-3.9557,-3.9582,-3.9605,-3.9623,-3.9625,-3.965,-3.9687,-3.9709,-3.9751,-3.9785,-3.9817,-3.9829,-3.9817,-3.9817,-3.9827,-3.9826,-3.9822,-3.9822,-3.9703,-3.9813,-3.9812,-3.9812,-3.9811,-3.9811,-3.9535,-3.9564,-3.9586,-3.962,-3.9638,-3.966,-3.9688,-3.9698,-3.9728,-3.9763,-3.9761,-3.9801,-3.9823,-3.9864,-3.9878,-3.9909,-3.9895,-3.991,-3.9913,-3.9916,-3.9918,-3.982,-3.9915,-3.9915,-3.9915,-3.9915,-3.9914,0,-3.9625,-3.9639,-3.967,-3.9703,-3.973,-3.9718,-3.9744,-3.9766,-3.9802,-3.9823,-3.9851,-3.9893,-3.9926,-3.9939,-3.9972,-3.9994,-3.999,-4.0003,-3.9999,-4.0002,-3.993,-3.9917,-4.0006,-4.0006,-4.0006,-4.0006,-4.0006,-4.0006,-3.9675,-3.9723,-3.9727,-3.9784,-3.9798,-3.9837,-3.9852,-3.9872,-3.9889,-3.9936,-3.9964,-3.9973,-3.9991,-4.0025,-4.0055,-4.0058,-4.0069,-4.0084,-4.0085,-4.0017,-4.0007,-3.9998,-3.9986,-4.0087,-4.0087,-4.0153,-4.0154,-4.0154]},{"header":{"parameterUnit":"m.s-1","parameterCategory":1,"la1":30.2991,"la2":30.254,"lo1":-89.0895,"lo2":-89.0444,"dy":0.0017,"dx":0.0017,"nx":28,"ny":28,"refTime":"2024-03-31T09:00:00:Z","depth":0,"parameterNumber":3,"parameterNumberName":"V-component_of_WINDS"},"data":[0,0,0,0,0,0,0,0,0,0,0,0,0,0,0,0,0,0,0,0,0,0,0,0,0,0,0,0,0,0,0,0,0,0,0,0,0,0,0,0,0,0,0,0,0,0,0,0,0,0,0,0,0,0,0,0,0,0,3.5188,3.5189,0,3.5283,3.5284,3.5285,3.5336,3.5336,3.5336,3.5336,3.543,3.5432,3.5434,0,0,0,0,0,0,0,0,0,0,0,0,0,3.5053,3.5055,3.5188,3.5189,3.5191,3.5282,3.5284,3.5285,3.5336,3.5336,3.5336,3.5336,3.5429,3.5432,3.5434,0,0,0,0,0,0,0,0,0,0,0,0,0,3.5126,3.5056,3.5188,3.5227,3.5231,3.5282,3.5284,3.5285,3.5335,3.5336,3.5336,3.5336,3.5428,3.5431,3.5435,3.5453,0,0,3.5446,3.5447,0,0,0,0,0,0,0,0,3.5121,3.5131,3.522,3.5224,3.5229,3.5298,3.527,3.5341,3.5335,3.5296,3.5336,3.5336,3.5385,3.5392,3.541,3.5458,3.5462,3.5446,3.5448,3.545,3.5451,0,0,0,0,0,0,0,3.5116,3.5127,3.5225,3.5221,3.5227,3.524,3.5251,3.5284,3.5338,3.5299,3.5303,3.5314,3.5388,3.5406,3.5412,3.5463,3.5446,3.5449,3.5451,3.5453,3.5536,3.5536,0,0,0,0,0,0,3.5105,3.5122,3.5222,3.5228,3.5175,3.5242,3.5254,3.5275,3.5338,3.5348,3.5314,3.5316,3.54,3.5408,3.5416,3.5445,3.545,3.5453,3.5455,3.5536,3.5536,3.5537,0,0,0,0,0,0,3.5102,3.5114,3.5219,3.5177,3.5191,3.5244,3.5268,3.5277,3.5295,3.5349,3.5359,3.5322,3.54,3.5411,3.5445,3.5449,3.5455,3.5458,3.5536,3.5536,3.5536,3.5501,0,0,0,0,0,0,3.5098,3.5112,3.5119,3.5176,3.5193,3.5246,3.5268,3.5279,3.5302,3.5306,3.536,3.5369,3.5401,3.5439,3.5448,3.5454,3.5461,3.5536,3.5536,3.5536,3.5502,3.55,3.5498,0,0,0,0,0,3.5093,3.5104,3.5119,3.5131,3.5203,3.5246,3.5255,3.5294,3.5302,3.531,3.5345,3.5367,3.5447,3.5442,3.5453,3.5459,3.5536,3.5536,3.5536,3.5503,3.55,3.5498,0,0,0,0,0,0,3.5043,3.5112,3.513,3.5159,3.5197,3.5254,3.5265,3.5289,3.5324,3.5326,3.5371,3.5383,3.5414,3.544,3.5434,3.5483,3.5494,3.5496,3.5465,3.5463,3.5461,3.5454,3.5464,0,0,0,0,0,3.5036,3.5065,3.5124,3.5144,3.5162,3.5211,3.5231,3.5258,3.5298,3.5313,3.5351,3.5389,3.5423,3.5444,3.5478,3.5506,3.5521,3.5516,3.5514,3.5513,3.5514,3.5535,3.5535,3.5537,3.5537,3.5537,0,0,3.502,3.5062,3.5077,3.5135,3.5167,3.5198,3.5223,3.5253,3.5277,3.5318,3.5354,3.5383,3.5428,3.5461,3.5477,3.5484,3.5517,3.5513,3.5511,3.5514,3.5536,3.5535,3.5535,3.5537,3.5537,3.5537,0,0,3.5009,3.5042,3.5065,3.5098,3.5147,3.518,3.5186,3.5242,3.5263,3.53,3.5333,3.5362,3.5418,3.5451,3.5475,3.5481,3.5504,3.5491,3.548,3.55,3.55,3.55,3.5506,3.5506,3.5492,3.5492,3.5492,0,3.4983,3.5031,3.5073,3.5103,3.5129,3.517,3.5195,3.5224,3.5282,3.5299,3.5306,3.5382,3.5415,3.5458,3.546,3.5477,3.5487,3.5485,3.5497,3.5498,3.5498,3.5504,3.5505,3.549,3.5491,3.5491,3.5491,0,3.4999,3.5031,3.5044,3.5102,3.5129,3.5156,3.5204,3.5226,3.5252,3.5284,3.5324,3.5366,3.5411,3.5423,3.5447,3.5471,3.5474,3.5488,3.55,3.5496,3.5502,3.5504,3.5488,3.5489,3.5489,3.549,0,0,3.4955,3.504,3.5044,3.5073,3.5133,3.5159,3.5189,3.5236,3.5256,3.5295,3.5323,3.5373,3.5388,3.5415,3.5443,3.5461,3.5468,3.5474,3.5476,3.5473,3.5501,3.5491,3.5492,3.5483,3.5484,3.5484,3.5498,0,3.4954,3.5011,3.5052,3.5094,3.5127,3.5168,3.5195,3.5236,3.5268,3.5301,3.5336,3.5372,3.5388,3.5406,3.5425,3.5463,3.5474,3.5462,3.5511,3.5512,3.5499,3.5495,3.5483,3.5494,3.55,3.55,3.5501,0,3.4959,3.5,3.5046,3.5107,3.5123,3.5146,3.5194,3.5225,3.5273,3.5295,3.5328,3.5358,3.5394,3.5403,3.5454,3.5445,3.5468,3.549,3.5491,3.5498,3.5506,3.5503,3.5498,3.55,3.5504,3.5504,3.5504,0,3.4927,3.4993,3.5031,3.5053,3.5125,3.5141,3.5171,3.522,3.5247,3.5289,3.5307,3.5352,3.5377,3.5411,3.5454,3.5456,3.5502,3.5513,3.5523,3.5522,3.553,3.5529,3.5531,3.5542,3.5542,3.5542,3.5542,0,3.4922,3.4948,3.5018,3.5041,3.5073,3.5121,3.5152,3.5186,3.5229,3.5261,3.5298,3.5327,3.538,3.5416,3.5449,3.5488,3.5498,3.5519,3.5527,3.5516,3.5514,3.5532,3.5533,3.5543,3.5543,3.5543,3.5543,0,3.489,3.4938,3.4982,3.5047,3.5065,3.5086,3.5142,3.5167,3.5203,3.5242,3.5254,3.5311,3.5355,3.5401,3.5459,3.5482,3.5521,3.5532,3.5505,3.551,3.5518,3.5518,3.5532,3.5538,3.5544,3.5544,3.5544,0,3.4885,3.4907,3.4976,3.5001,3.5032,3.507,3.5099,3.5148,3.5176,3.5236,3.5254,3.5301,3.5342,3.5411,3.5457,3.5503,3.5517,3.5519,3.5524,3.5513,3.552,3.5519,3.5523,3.5517,3.5517,3.5516,3.5516,0,3.487,3.4894,3.4935,3.4985,3.5019,3.506,3.5103,3.5121,3.5179,3.5209,3.5256,3.5288,3.5351,3.5398,3.5451,3.5483,3.551,3.5515,3.552,3.5509,3.5494,3.5505,3.5502,3.5514,3.5514,3.5514,3.5515,3.5515,3.4854,3.4877,3.4931,3.4976,3.5015,3.5055,3.5083,3.5124,3.5164,3.522,3.5247,3.5295,3.5346,3.542,3.5452,3.5491,3.5498,3.5505,3.5507,3.5508,3.5507,3.5487,3.55,3.55,3.55,3.55,3.5501,0,3.4844,3.4882,3.4923,3.4984,3.502,3.5044,3.5094,3.5123,3.5165,3.5211,3.5252,3.5308,3.5355,3.5407,3.5458,3.5479,3.5493,3.5491,3.549,3.5498,3.5496,3.5487,3.5479,3.5479,3.5479,3.5479,3.5479,3.5479,3.4843,3.4886,3.4916,3.4979,3.5017,3.5065,3.5092,3.513,3.5168,3.523,3.527,3.5304,3.5354,3.5409,3.5455,3.5469,3.5486,3.5481,3.5499,3.5496,3.5497,3.5499,3.5492,3.5484,3.5484,3.5498,3.5498,3.5498]}]]